User: anonymous   Login
Location: Fort Wayne
(41.1310°N, 85.1290°W)
Time: 18:02:58
(UTC-05:00)
Language:

COSMOS 2406 - Orbit

View from above orbital plane
View from above orbital plane
View from above satellite
View from above satellite

Ground track
Ground track

The orbit data is extracted from the following two-line orbital elements,

1 28352U 04021A   14330.84251337 -.00000133  00000-0 -47493-4 0  4491
2 28352 071.0056 273.0772 0012047 065.3108 002.3983 14.11383466539151
Epoch (UTC): 26 November 2014 20:13:13
Eccentricity: 0.0012047
inclination: 71.0056°
perigee height: 846 km
apogee height: 863 km
right ascension of ascending node: 273.0772°
argument of perigee: 65.3108°
revolutions per day: 14.11383466
mean anomaly at epoch: 2.3983°
orbit number at epoch: 53915

The dashed part of the orbit path shows where the satellite is in the earth's shadow,  

DLR